STARLINK-2746, 48676

Orbit data source: Space-Track

STARLINK-2746, 48676 is a payload satellite owned by SpaceX/Seattle (US) in LEO that was launched on Wed, 26 May 2021 UTC via an FALCON 9 launch vehicle from the Air Force Eastern Test Range (AFETR). Payload-class satellites include a variety of spacecraft equipped with specific instruments for various scientific and technological missions. These include communications satellites like Starlink; space stations such as the ISS; scientific satellites like the Hubble; Earth observation satellites from companies like Planet Labs, Umbra, and HawkEye 360; GPS; miniature CubeSats for education and research; and military/defense satellites.

Loading next visibility...
Identifier
48676, 2021-044AQ
Orbit
LEO
Country
Flag of USUS
Related business
Manufacturer
SpaceX/Seattle
Mission
Operational Commercial Communications
Bus & Motor
STARLINK, Unknown motor
Mass
260 kg wet, ~248 kg dry
Launch date (UTC)
2021-05-26 (5 years ago)
Launch vehicle
FALCON 9
Launch site
Air Force Eastern Test Range (AFETR)
Object type
Payload
Rocket body
Debris
Shape & HBR
Box + 1 Pan, 10.1 m
Radar Cross Section
13.562 m², Large (>1 m²)

Expand to show TLE details & history
Last TLE update: 1 day ago

TLE from 1 day ago
0 STARLINK-2746
1 48676U 21044AQ  25348.68277407  .00000670  00000-0  63902-4 0  9992
2 48676  53.0555 133.2265 0001236  94.4854 265.6276 15.06387898251034
Epoch: 2025-12-14T16:23Z
TLE epoch observation values (Epoch: 2025-12-14T16:23:11.679Z)
Latitude
-0.00005°
Longitude
163.83562°
Altitude
548.193 km
Speed
7.589 km/s
True Right ascension
08h 52m 54s
True Declination
0° 00' 00"
Sunlit
Object was in full shadow at epoch
Visualization orbit readout
Latitude
Unknown
Longitude
Unknown
Altitude
Unknown
Speed
Unknown
Apparent Right ascension
Unknown
Apparent Declination
Unknown
Sunlit
N/A
Visualization observer readout
Local Sidereal Time
17:04:31
Azimuth
Unknown
Elevation
Unknown
Doppler factor
Unknown
Orbital elements
Apogee altitude
548.375 km
Perigee altitude
546.663 km
Semi-major axis
6,925.656 km
Eccentricity
0.00012
Inclination
53.0555°
RAAN
133.2265°
Arg. of periapsis
94.4854°
True anomaly
265.61348°
Mean anomaly
265.6276°
Eccentric anomaly
265.62054°
Mean motion
3.76575 °/min
Orbital period
95.6 mins
BSTAR
0.000063902
Loading maneuver chart data...
Computing Atmospheric mass density...
Loading historical data...
Loading historical data...
Loading historical data...
Loading historical data...
Loading historical data...
Loading historical data...
Loading historical data...

Documentation

Showing up to 5 results
|